AIZ591 LLBG-VTBS

Flight info

Callsign AIZ591
Flight time N/A
Altitude 37000
Route SALAM N134 OSAMA DCT EGLOT M449 NETOL V54 WEJ T510 RBG B544 JDW G650 KONET DCT XADOX DCT DWA UW885 HARGA UT382 AVEDA UT383 VUTAS L875 MMV P761 PPB P762 DWI L877 MIGAR L524 IBETO DCT WILLA WILLA1C
Aircraft A332/H-SDE3GHIJ2J3J5M1RVWXY/LB2D1

Departure

Time 2026-05-07 11:50
Airport Ben Gurion International Airport (LLBG)

Arrival

Time N/A
Airport Suvarnabhumi Airport (VTBS)
Time Latitude Longitude Altitude Speed Heading
2026-05-07 10:28 32.00215 34.87474 119 ft 0 kts 258°
2026-05-07 11:28 32.00216 34.87481 117 ft 4 kts 258°
2026-05-07 11:28 32.00222 34.87512 120 ft 4 kts 252°
2026-05-07 11:29 32.00230 34.87535 118 ft 4 kts 255°
2026-05-07 11:29 32.00226 34.87556 119 ft 4 kts 301°
2026-05-07 11:29 32.00213 34.87584 119 ft 4 kts 301°
2026-05-07 11:29 32.00197 34.87606 119 ft 3 kts 326°
2026-05-07 11:30 32.00175 34.87618 119 ft 4 kts
2026-05-07 11:30 32.00152 34.87607 119 ft 2 kts 30°
2026-05-07 11:30 32.00130 34.87592 119 ft 4 kts 30°
2026-05-07 11:30 32.00107 34.87577 119 ft 4 kts 31°
2026-05-07 11:31 32.00099 34.87571 119 ft 1 kts 31°
2026-05-07 11:36 32.00100 34.87572 124 ft 0 kts 31°
2026-05-07 11:36 32.00118 34.87585 120 ft 6 kts 31°
2026-05-07 11:36 32.00170 34.87622 120 ft 12 kts 31°
2026-05-07 11:36 32.00254 34.87682 118 ft 16 kts 31°
2026-05-07 11:37 32.00357 34.87754 118 ft 17 kts 31°
2026-05-07 11:37 32.00456 34.87824 118 ft 16 kts 31°
2026-05-07 11:37 32.00550 34.87892 118 ft 16 kts 31°
2026-05-07 11:37 32.00631 34.87949 119 ft 0 kts 31°
2026-05-07 11:39 32.00649 34.87962 119 ft 5 kts 31°
2026-05-07 11:39 32.00693 34.87993 121 ft 9 kts 31°
2026-05-07 11:39 32.00757 34.88038 119 ft 12 kts 31°
2026-05-07 11:40 32.00837 34.88097 118 ft 15 kts 32°
2026-05-07 11:40 32.00932 34.88166 121 ft 18 kts 32°
2026-05-07 11:40 32.01043 34.88247 120 ft 20 kts 32°
2026-05-07 11:40 32.01167 34.88338 120 ft 22 kts 32°
2026-05-07 11:41 32.01295 34.88442 119 ft 23 kts 41°
2026-05-07 11:41 32.01406 34.88592 119 ft 25 kts 57°
2026-05-07 11:41 32.01483 34.88783 120 ft 26 kts 72°
2026-05-07 11:41 32.01521 34.89000 119 ft 28 kts 80°
2026-05-07 11:42 32.01555 34.89229 121 ft 29 kts 79°
2026-05-07 11:42 32.01594 34.89462 121 ft 29 kts 79°
2026-05-07 11:42 32.01630 34.89650 120 ft 15 kts 62°
2026-05-07 11:42 32.01653 34.89682 118 ft 0 kts 41°
2026-05-07 11:45 32.01654 34.89682 118 ft 1 kts 41°
2026-05-07 11:45 32.01676 34.89700 118 ft 6 kts 33°
2026-05-07 11:45 32.01689 34.89709 119 ft 0 kts 30°
2026-05-07 11:45 32.01696 34.89714 119 ft 2 kts 29°
2026-05-07 11:46 32.01709 34.89723 119 ft 2 kts 29°
2026-05-07 11:46 32.01725 34.89734 119 ft 3 kts 32°
2026-05-07 11:46 32.01742 34.89747 120 ft 3 kts 32°
2026-05-07 11:46 32.01761 34.89759 119 ft 3 kts 27°
2026-05-07 11:47 32.01782 34.89767 118 ft 3 kts 12°
2026-05-07 11:47 32.01803 34.89766 119 ft 3 kts 353°
2026-05-07 11:47 32.01822 34.89757 122 ft 3 kts 333°
2026-05-07 11:47 32.01835 34.89744 117 ft 2 kts 313°
2026-05-07 11:48 32.01838 34.89720 117 ft 4 kts 271°
2026-05-07 11:48 32.01834 34.89662 117 ft 11 kts 261°
2026-05-07 11:48 32.01814 34.89538 121 ft 19 kts 259°
2026-05-07 11:48 32.01786 34.89356 120 ft 26 kts 260°
2026-05-07 11:49 32.01728 34.88967 123 ft 77 kts 260°
2026-05-07 11:49 32.01596 34.88120 120 ft 132 kts 259°
2026-05-07 11:49 32.01398 34.86864 139 ft 177 kts 259°
2026-05-07 11:49 32.01163 34.85368 622 ft 189 kts 259°
2026-05-07 11:50 32.00947 34.83831 1418 ft 191 kts 260°
2026-05-07 11:50 32.00330 34.82352 1807 ft 221 kts 223°
2026-05-07 11:50 31.98860 34.81590 2246 ft 246 kts 182°
2026-05-07 11:50 31.97206 34.82107 3081 ft 252 kts 144°
2026-05-07 11:51 31.96123 34.83680 3986 ft 254 kts 109°
2026-05-07 11:51 31.95857 34.85728 4779 ft 254 kts 91°
2026-05-07 11:51 31.95776 34.87806 5294 ft 259 kts 94°
2026-05-07 11:51 31.95582 34.89935 5807 ft 263 kts 97°
2026-05-07 11:52 31.95273 34.92079 6037 ft 265 kts 101°
2026-05-07 11:52 31.94889 34.94214 6076 ft 266 kts 102°
2026-05-07 11:52 31.94364 34.96277 6079 ft 268 kts 111°
2026-05-07 11:52 31.93630 34.98329 6074 ft 275 kts 113°
2026-05-07 11:53 31.92840 35.00398 6090 ft 277 kts 115°
2026-05-07 11:53 31.92036 35.02474 6378 ft 280 kts 115°
2026-05-07 11:53 31.91220 35.04579 6964 ft 283 kts 115°
2026-05-07 11:53 31.90398 35.06698 7569 ft 286 kts 115°
2026-05-07 11:54 31.89566 35.08847 8163 ft 290 kts 115°
2026-05-07 11:54 31.88727 35.11013 8771 ft 293 kts 115°
2026-05-07 11:54 31.87871 35.13222 9332 ft 298 kts 115°
2026-05-07 11:54 31.87005 35.15455 9901 ft 302 kts 116°
2026-05-07 11:55 31.86134 35.17699 10312 ft 311 kts 116°
2026-05-07 11:55 31.85197 35.20107 10535 ft 328 kts 116°
2026-05-07 11:55 31.84239 35.22573 10730 ft 344 kts 116°
2026-05-07 11:55 31.83218 35.25199 10911 ft 360 kts 116°
2026-05-07 11:56 31.82153 35.27934 11117 ft 375 kts 116°
2026-05-07 11:56 31.81049 35.30770 11297 ft 388 kts 116°
2026-05-07 11:56 31.79909 35.33699 11613 ft 396 kts 116°
2026-05-07 11:56 31.78781 35.36678 12006 ft 402 kts 112°
2026-05-07 11:57 31.78100 35.39883 12429 ft 409 kts 95°
2026-05-07 11:57 31.78336 35.43217 12812 ft 414 kts 73°
2026-05-07 11:57 31.79526 35.46276 13231 ft 414 kts 53°
2026-05-07 11:57 31.81497 35.48667 13648 ft 411 kts 32°
2026-05-07 11:58 31.84033 35.50144 14045 ft 406 kts 13°
2026-05-07 11:58 31.86707 35.50917 14397 ft 406 kts
2026-05-07 11:58 31.89503 35.51428 14758 ft 408 kts
2026-05-07 11:58 31.92301 35.52146 15132 ft 418 kts 18°
2026-05-07 11:59 31.94812 35.53919 15513 ft 429 kts 38°
2026-05-07 11:59 31.96763 35.56613 15890 ft 438 kts 58°
2026-05-07 11:59 31.97924 35.59958 16266 ft 444 kts 78°
2026-05-07 11:59 31.98146 35.63582 16663 ft 445 kts 97°
2026-05-07 12:00 31.97414 35.67091 17065 ft 441 kts 117°
2026-05-07 12:00 31.95837 35.70099 17476 ft 434 kts 136°
2026-05-07 12:00 31.93559 35.72366 17882 ft 425 kts 155°
2026-05-07 12:00 31.90860 35.73631 18283 ft 414 kts 174°
2026-05-07 12:01 31.88022 35.73794 18623 ft 405 kts 192°
2026-05-07 12:01 31.85340 35.72909 18947 ft 399 kts 205°
2026-05-07 12:01 31.82667 35.71940 19277 ft 408 kts 192°
2026-05-07 12:01 31.79821 35.72004 19610 ft 422 kts 174°
2026-05-07 12:02 31.77008 35.73162 19944 ft 435 kts 156°
2026-05-07 12:02 31.74560 35.75325 20275 ft 449 kts 138°
2026-05-07 12:02 31.72698 35.78315 20630 ft 458 kts 123°
2026-05-07 12:02 31.71212 35.81651 20963 ft 461 kts 121°
2026-05-07 12:03 31.69636 35.84935 21279 ft 461 kts 126°
2026-05-07 12:03 31.67804 35.88019 21592 ft 460 kts 132°
2026-05-07 12:03 31.65733 35.90876 21917 ft 459 kts 137°
2026-05-07 12:03 31.63499 35.93543 22207 ft 459 kts 140°
2026-05-07 12:04 31.61158 35.96102 22521 ft 460 kts 142°
2026-05-07 12:04 31.58797 35.98575 22830 ft 462 kts 142°
2026-05-07 12:04 31.56382 36.01071 23172 ft 463 kts 143°
2026-05-07 12:04 31.53961 36.03575 23476 ft 465 kts 142°
2026-05-07 12:05 31.51531 36.06104 23751 ft 467 kts 142°
2026-05-07 12:05 31.49101 36.08651 23994 ft 470 kts 142°
2026-05-07 12:05 31.46667 36.11215 24247 ft 472 kts 142°
2026-05-07 12:05 31.44221 36.13798 24499 ft 473 kts 142°
2026-05-07 12:06 31.41771 36.16389 24746 ft 475 kts 142°
2026-05-07 12:06 31.39304 36.18996 24992 ft 477 kts 142°
2026-05-07 12:06 31.36825 36.21591 25245 ft 478 kts 144°
2026-05-07 12:06 31.34176 36.23915 25473 ft 475 kts 151°
2026-05-07 12:07 31.31326 36.25759 25686 ft 471 kts 160°
2026-05-07 12:07 31.28255 36.27062 25939 ft 467 kts 169°
2026-05-07 12:07 31.25077 36.27744 26152 ft 462 kts 179°
2026-05-07 12:07 31.21870 36.27789 26378 ft 458 kts 188°
2026-05-07 12:08 31.18734 36.27215 26599 ft 455 kts 197°
2026-05-07 12:08 31.15672 36.26270 26843 ft 455 kts 200°
2026-05-07 12:08 31.12680 36.25210 27052 ft 455 kts 201°
2026-05-07 12:08 31.09641 36.24074 27244 ft 458 kts 201°
2026-05-07 12:09 31.06598 36.22922 27442 ft 460 kts 201°
2026-05-07 12:09 31.03547 36.21776 27686 ft 460 kts 201°
2026-05-07 12:09 31.00493 36.20646 27933 ft 461 kts 201°
2026-05-07 12:09 30.97424 36.19525 28124 ft 463 kts 201°
2026-05-07 12:10 30.94382 36.18423 28347 ft 464 kts 201°
2026-05-07 12:10 30.91286 36.17308 28545 ft 466 kts 201°
2026-05-07 12:10 30.88179 36.16200 28740 ft 468 kts 199°
2026-05-07 12:10 30.84998 36.15359 28952 ft 472 kts 193°
2026-05-07 12:11 30.81716 36.15015 29270 ft 476 kts 185°
2026-05-07 12:11 30.78401 36.15234 29565 ft 479 kts 178°
2026-05-07 12:11 30.75092 36.15740 29845 ft 480 kts 176°
2026-05-07 12:11 30.71782 36.16363 30115 ft 480 kts 175°
2026-05-07 12:12 30.68485 36.17038 30349 ft 480 kts 174°
2026-05-07 12:12 30.65208 36.17724 30614 ft 479 kts 174°
2026-05-07 12:12 30.61923 36.18408 30896 ft 477 kts 174°
2026-05-07 12:12 30.58657 36.19077 31165 ft 475 kts 175°
2026-05-07 12:13 30.55414 36.19731 31449 ft 473 kts 175°
2026-05-07 12:13 30.52202 36.20370 31695 ft 472 kts 175°
2026-05-07 12:13 30.48957 36.21010 31938 ft 471 kts 175°
2026-05-07 12:13 30.45730 36.21644 32187 ft 470 kts 175°
2026-05-07 12:14 30.42518 36.22273 32398 ft 469 kts 175°
2026-05-07 12:14 30.39292 36.22906 32644 ft 468 kts 176°
2026-05-07 12:14 30.36083 36.23534 32880 ft 467 kts 176°
2026-05-07 12:14 30.32881 36.24162 33087 ft 466 kts 176°
2026-05-07 12:15 30.29682 36.24789 33322 ft 465 kts 176°
2026-05-07 12:15 30.26534 36.25406 33555 ft 463 kts 176°
2026-05-07 12:15 30.23363 36.26028 33806 ft 461 kts 176°
2026-05-07 12:15 30.20211 36.26646 34020 ft 460 kts 176°
2026-05-07 12:16 30.17046 36.27283 34182 ft 460 kts 176°
2026-05-07 12:16 30.13893 36.27931 34339 ft 459 kts 176°
2026-05-07 12:16 30.10745 36.28584 34487 ft 458 kts 176°
2026-05-07 12:16 30.07635 36.29231 34658 ft 457 kts 176°
2026-05-07 12:17 30.04503 36.29881 34798 ft 457 kts 176°
2026-05-07 12:17 30.01366 36.30531 34931 ft 457 kts 176°
2026-05-07 12:17 29.98231 36.31178 35062 ft 456 kts 176°
2026-05-07 12:17 29.95097 36.31824 35201 ft 456 kts 176°
2026-05-07 12:18 29.91974 36.32467 35330 ft 455 kts 176°
2026-05-07 12:18 29.88844 36.33111 35460 ft 455 kts 176°
2026-05-07 12:18 29.85769 36.33743 35579 ft 454 kts 176°
2026-05-07 12:18 29.82656 36.34383 35716 ft 453 kts 176°
2026-05-07 12:19 29.79555 36.35019 35836 ft 453 kts 176°
2026-05-07 12:19 29.76438 36.35658 35946 ft 453 kts 176°
2026-05-07 12:19 29.73339 36.36294 36058 ft 453 kts 176°
2026-05-07 12:19 29.70234 36.36926 36173 ft 452 kts 177°
2026-05-07 12:20 29.67136 36.37521 36283 ft 451 kts 177°
2026-05-07 12:20 29.64037 36.38089 36392 ft 451 kts 178°
2026-05-07 12:20 29.60971 36.38637 36476 ft 450 kts 178°
2026-05-07 12:20 29.57870 36.39188 36594 ft 450 kts 178°
2026-05-07 12:21 29.54771 36.39739 36693 ft 449 kts 178°
2026-05-07 12:21 29.48590 36.40846 36885 ft 449 kts 178°
2026-05-07 12:22 29.42407 36.41960 37038 ft 450 kts 178°
2026-05-07 12:22 29.36252 36.43074 37027 ft 450 kts 178°
2026-05-07 12:23 29.30070 36.44198 37031 ft 449 kts 178°
2026-05-07 12:23 29.23878 36.45321 37025 ft 449 kts 178°
2026-05-07 12:24 29.17737 36.46431 37026 ft 449 kts 178°
2026-05-07 12:24 29.11548 36.47549 37023 ft 449 kts 178°
2026-05-07 12:25 29.05373 36.48664 37023 ft 448 kts 178°
2026-05-07 12:25 28.99211 36.49777 37023 ft 448 kts 178°
2026-05-07 12:26 28.93039 36.50891 37020 ft 448 kts 178°
2026-05-07 12:26 28.86878 36.52002 37017 ft 448 kts 178°
2026-05-07 12:27 28.80755 36.53104 37019 ft 448 kts 178°
2026-05-07 12:27 28.74582 36.54214 37020 ft 448 kts 178°
2026-05-07 12:28 28.68422 36.55320 37018 ft 448 kts 178°
2026-05-07 12:28 28.62260 36.56425 37006 ft 448 kts 178°
2026-05-07 12:29 28.56134 36.57520 37019 ft 448 kts 178°
2026-05-07 12:29 28.49951 36.58623 37019 ft 448 kts 178°
2026-05-07 12:30 28.43780 36.59722 37018 ft 448 kts 178°
2026-05-07 12:30 28.38655 36.60619 37006 ft 447 kts 180°
2026-05-07 12:31 28.32533 36.60796 37018 ft 437 kts 188°
2026-05-07 12:31 28.26458 36.60510 37017 ft 436 kts 189°
2026-05-07 12:32 28.20433 36.60140 37026 ft 436 kts 189°
2026-05-07 12:32 28.14368 36.59772 37005 ft 436 kts 189°
2026-05-07 12:33 28.05314 36.59250 37028 ft 434 kts 189°
2026-05-07 12:33 27.99271 36.58908 37028 ft 435 kts 189°
2026-05-07 12:34 27.93231 36.58566 37021 ft 435 kts 189°
2026-05-07 12:34 27.87182 36.58225 37019 ft 434 kts 189°
2026-05-07 12:35 27.81138 36.57883 37019 ft 434 kts 189°
2026-05-07 12:35 27.75105 36.57542 37006 ft 434 kts 189°
2026-05-07 12:36 27.69113 36.57204 37009 ft 434 kts 189°
2026-05-07 12:36 27.63079 36.56863 36998 ft 434 kts 189°
2026-05-07 12:37 27.57035 36.56522 36988 ft 435 kts 189°
2026-05-07 12:37 27.50994 36.56187 36985 ft 435 kts 189°
2026-05-07 12:38 27.44977 36.55850 36976 ft 434 kts 189°
2026-05-07 12:38 27.38939 36.55509 36967 ft 435 kts 190°
2026-05-07 12:39 27.32891 36.55168 36963 ft 435 kts 189°
2026-05-07 12:39 27.26838 36.54829 36946 ft 435 kts 189°
2026-05-07 12:40 27.20779 36.54490 36915 ft 435 kts 190°
2026-05-07 12:40 27.14734 36.54154 36941 ft 434 kts 190°
2026-05-07 12:41 27.08732 36.53821 36937 ft 434 kts 190°
2026-05-07 12:41 27.02691 36.53488 36935 ft 434 kts 190°
2026-05-07 12:42 26.96656 36.53154 36909 ft 434 kts 190°
2026-05-07 12:42 26.90666 36.52825 36915 ft 433 kts 190°
2026-05-07 12:43 26.84649 36.52494 36916 ft 432 kts 190°
2026-05-07 12:43 26.78631 36.52163 36910 ft 433 kts 190°
2026-05-07 12:44 26.72616 36.51832 36897 ft 433 kts 190°
2026-05-07 12:44 26.66593 36.51503 36918 ft 432 kts 190°
2026-05-07 12:45 26.60588 36.51171 36913 ft 432 kts 190°
2026-05-07 12:45 26.54624 36.50839 36912 ft 432 kts 190°
2026-05-07 12:46 26.48615 36.50505 36880 ft 432 kts 190°
2026-05-07 12:46 26.42610 36.50173 36907 ft 432 kts 190°
2026-05-07 12:47 26.36583 36.49839 36909 ft 432 kts 190°
2026-05-07 12:47 26.30603 36.49510 36910 ft 433 kts 189°
2026-05-07 12:48 26.24517 36.50049 36914 ft 448 kts 175°
2026-05-07 12:48 26.21508 36.51087 36906 ft 459 kts 166°
2026-05-07 12:48 26.18623 36.52715 36911 ft 472 kts 156°
2026-05-07 12:49 26.15968 36.54954 36911 ft 485 kts 145°
2026-05-07 12:49 26.13672 36.57766 36904 ft 498 kts 134°
2026-05-07 12:49 26.10016 36.64455 36899 ft 510 kts 126°
2026-05-07 12:50 26.06658 36.71434 36903 ft 512 kts 125°
2026-05-07 12:50 26.03325 36.78377 36908 ft 512 kts 126°
2026-05-07 12:51 25.99914 36.85339 36909 ft 512 kts 126°
2026-05-07 12:51 25.96474 36.92281 36908 ft 512 kts 126°
2026-05-07 12:52 25.93031 36.99207 36901 ft 512 kts 127°
2026-05-07 12:52 25.89607 37.06090 36916 ft 512 kts 127°
2026-05-07 12:53 25.86161 37.13007 36917 ft 511 kts 127°
2026-05-07 12:53 25.82703 37.19909 36914 ft 509 kts 129°
2026-05-07 12:54 25.80698 37.23097 36913 ft 498 kts 139°
2026-05-07 12:54 25.78361 37.25800 36915 ft 484 kts 148°
2026-05-07 12:54 25.73054 37.30252 36918 ft 476 kts 154°
2026-05-07 12:55 25.67572 37.34376 36924 ft 476 kts 155°
2026-05-07 12:55 25.62064 37.38456 36921 ft 475 kts 155°
2026-05-07 12:56 25.56603 37.42537 36924 ft 476 kts 155°
2026-05-07 12:56 25.51126 37.46654 36926 ft 476 kts 155°
2026-05-07 12:57 25.45650 37.50775 36933 ft 476 kts 155°
2026-05-07 12:57 25.40173 37.54892 36923 ft 475 kts 155°
2026-05-07 12:58 25.34688 37.59008 36929 ft 476 kts 155°
2026-05-07 12:58 25.29206 37.63117 36926 ft 475 kts 155°
2026-05-07 12:59 25.23734 37.67214 36924 ft 475 kts 155°
2026-05-07 12:59 25.18258 37.71311 36919 ft 475 kts 155°
2026-05-07 13:00 25.12816 37.75384 36920 ft 476 kts 155°
2026-05-07 13:00 25.07338 37.79482 36924 ft 475 kts 155°
2026-05-07 13:01 25.01872 37.83572 36918 ft 473 kts 155°
2026-05-07 13:01 24.96406 37.87648 36915 ft 475 kts 155°
2026-05-07 13:02 24.90916 37.91737 36888 ft 474 kts 155°
2026-05-07 13:02 24.85447 37.95808 36893 ft 474 kts 155°
2026-05-07 13:03 24.80012 37.99850 36866 ft 474 kts 155°
2026-05-07 13:03 24.74533 38.03933 36882 ft 476 kts 155°
2026-05-07 13:04 24.69029 38.08015 36884 ft 477 kts 155°
2026-05-07 13:04 24.63556 38.12065 36866 ft 476 kts 155°
2026-05-07 13:05 24.58058 38.16132 36866 ft 476 kts 155°
2026-05-07 13:05 24.52566 38.20178 36838 ft 475 kts 155°
2026-05-07 13:06 24.47061 38.24243 36834 ft 476 kts 155°
2026-05-07 13:06 24.41560 38.28317 36827 ft 477 kts 155°
2026-05-07 13:07 24.36054 38.32383 36827 ft 476 kts 155°
2026-05-07 13:07 24.30555 38.36435 36825 ft 476 kts 155°
2026-05-07 13:08 24.25079 38.40464 36830 ft 476 kts 155°
2026-05-07 13:08 24.19577 38.44504 36838 ft 476 kts 155°
2026-05-07 13:09 24.14061 38.48547 36876 ft 477 kts 155°
2026-05-07 13:09 24.08544 38.52584 36878 ft 478 kts 155°
2026-05-07 13:10 24.03014 38.56629 36875 ft 477 kts 155°
2026-05-07 13:10 23.97529 38.60636 36876 ft 477 kts 155°
2026-05-07 13:11 23.91999 38.64670 36873 ft 477 kts 155°
2026-05-07 13:11 23.86465 38.68709 36882 ft 478 kts 155°
2026-05-07 13:12 23.80925 38.72746 36884 ft 479 kts 155°
2026-05-07 13:12 23.75370 38.76750 36889 ft 475 kts 159°
2026-05-07 13:13 23.72495 38.78357 36889 ft 464 kts 167°
2026-05-07 13:13 23.69499 38.79582 36890 ft 458 kts 170°
2026-05-07 13:13 23.63443 38.81721 36887 ft 456 kts 172°
2026-05-07 13:14 23.57356 38.83725 36890 ft 456 kts 172°
2026-05-07 13:14 23.51323 38.85711 36889 ft 456 kts 172°
2026-05-07 13:15 23.45245 38.87732 36882 ft 456 kts 172°
2026-05-07 13:15 23.39180 38.89759 36877 ft 456 kts 172°
2026-05-07 13:16 23.33110 38.91788 36877 ft 455 kts 172°
2026-05-07 13:16 23.27054 38.93810 36863 ft 455 kts 173°
2026-05-07 13:17 23.20998 38.95829 36873 ft 455 kts 173°
2026-05-07 13:17 23.14983 38.97832 36873 ft 455 kts 173°
2026-05-07 13:18 23.08931 38.99845 36871 ft 455 kts 173°
2026-05-07 13:18 23.02877 39.01857 36869 ft 455 kts 173°
2026-05-07 13:19 22.97803 39.03542 36877 ft 455 kts 173°
2026-05-07 13:19 22.91788 39.05538 36875 ft 455 kts 173°
2026-05-07 13:20 22.85736 39.07544 36869 ft 455 kts 173°
2026-05-07 13:20 22.79655 39.09342 36868 ft 445 kts 180°
2026-05-07 13:21 22.73582 39.09885 36842 ft 435 kts 186°
2026-05-07 13:21 22.67523 39.10060 36864 ft 435 kts 187°
2026-05-07 13:22 22.61501 39.10169 36863 ft 435 kts 187°
2026-05-07 13:22 22.55443 39.10292 36862 ft 435 kts 187°
2026-05-07 13:23 22.49387 39.10433 36861 ft 435 kts 187°
2026-05-07 13:23 22.43327 39.10579 36852 ft 436 kts 187°
2026-05-07 13:24 22.37243 39.10726 36853 ft 437 kts 187°
2026-05-07 13:24 22.31154 39.10874 36852 ft 437 kts 187°
2026-05-07 13:25 22.25109 39.11020 36853 ft 437 kts 187°
2026-05-07 13:25 22.19026 39.11166 36855 ft 437 kts 187°
2026-05-07 13:26 22.12937 39.11312 36846 ft 437 kts 187°
2026-05-07 13:26 22.06847 39.11458 36846 ft 437 kts 187°
2026-05-07 13:27 22.00751 39.11604 36847 ft 437 kts 187°
2026-05-07 13:27 21.94667 39.11750 36836 ft 438 kts 187°
2026-05-07 13:28 21.88559 39.11894 36845 ft 440 kts 187°
2026-05-07 13:28 21.82469 39.12040 36837 ft 440 kts 187°
2026-05-07 13:29 21.76338 39.12188 36831 ft 440 kts 187°
2026-05-07 13:29 21.70213 39.12307 36809 ft 439 kts 188°
2026-05-07 13:30 21.64132 39.12197 36825 ft 440 kts 189°
2026-05-07 13:30 21.58005 39.12003 36827 ft 440 kts 189°
2026-05-07 13:31 21.51877 39.11821 36830 ft 440 kts 189°
2026-05-07 13:31 21.45754 39.11657 36818 ft 440 kts 189°
2026-05-07 13:32 21.39663 39.11501 36831 ft 441 kts 189°
2026-05-07 13:32 21.33518 39.11346 36833 ft 441 kts 189°
2026-05-07 13:33 21.27372 39.11191 36832 ft 441 kts 189°
2026-05-07 13:33 21.21213 39.11034 36833 ft 441 kts 189°
2026-05-07 13:34 21.12017 39.10800 36831 ft 443 kts 188°
2026-05-07 13:35 21.05851 39.10643 36831 ft 443 kts 188°
2026-05-07 13:35 20.99720 39.10489 36829 ft 443 kts 188°
2026-05-07 13:36 20.93563 39.10333 36806 ft 442 kts 188°
2026-05-07 13:36 20.87390 39.10176 36822 ft 443 kts 188°
2026-05-07 13:37 20.81223 39.10020 36822 ft 443 kts 188°
2026-05-07 13:37 20.75050 39.09864 36819 ft 443 kts 188°
2026-05-07 13:38 20.68885 39.09709 36804 ft 443 kts 188°
2026-05-07 13:38 20.62739 39.09553 36818 ft 444 kts 188°
2026-05-07 13:39 20.56559 39.09398 36818 ft 444 kts 188°
2026-05-07 13:39 20.50380 39.09242 36818 ft 444 kts 188°
2026-05-07 13:40 20.44228 39.09088 36818 ft 444 kts 188°
2026-05-07 13:40 20.38052 39.08932 36818 ft 444 kts 188°
2026-05-07 13:41 20.31870 39.08777 36817 ft 444 kts 188°
2026-05-07 13:41 20.25691 39.08622 36818 ft 444 kts 188°
2026-05-07 13:42 20.19501 39.08467 36818 ft 444 kts 188°
2026-05-07 13:42 20.13318 39.08312 36817 ft 445 kts 187°
2026-05-07 13:43 20.07148 39.08158 36818 ft 445 kts 187°
2026-05-07 13:43 20.00950 39.08003 36816 ft 445 kts 187°
2026-05-07 13:44 19.94751 39.07848 36816 ft 445 kts 187°
2026-05-07 13:44 19.88550 39.07693 36814 ft 445 kts 187°
2026-05-07 13:45 19.82351 39.07538 36819 ft 446 kts 187°
2026-05-07 13:45 19.76143 39.07384 36815 ft 446 kts 187°
2026-05-07 13:46 19.69974 39.07230 36815 ft 446 kts 187°
2026-05-07 13:46 19.63766 39.07076 36817 ft 446 kts 187°
2026-05-07 13:47 19.57559 39.06921 36821 ft 446 kts 187°
2026-05-07 13:47 19.51353 39.06767 36821 ft 446 kts 187°
2026-05-07 13:48 19.45140 39.06613 36821 ft 446 kts 187°
2026-05-07 13:48 19.38971 39.06460 36810 ft 446 kts 187°
2026-05-07 13:49 19.32751 39.06305 36820 ft 446 kts 187°
2026-05-07 13:49 19.26530 39.06151 36821 ft 446 kts 187°
2026-05-07 13:50 19.20359 39.05998 36819 ft 446 kts 187°
2026-05-07 13:50 19.14144 39.05845 36824 ft 447 kts 187°
2026-05-07 13:51 19.07929 39.05592 36823 ft 446 kts 188°
2026-05-07 13:51 19.01725 39.05232 36823 ft 446 kts 188°
2026-05-07 13:52 18.95570 39.04868 36826 ft 446 kts 188°
2026-05-07 13:52 18.89373 39.04515 36824 ft 446 kts 188°
2026-05-07 13:53 18.83170 39.04169 36823 ft 446 kts 188°
2026-05-07 13:53 18.76951 39.03824 36823 ft 448 kts 188°
2026-05-07 13:54 18.70717 39.03479 36824 ft 448 kts 188°
2026-05-07 13:54 18.64505 39.03135 36823 ft 448 kts 188°
2026-05-07 13:55 18.58279 39.02790 36825 ft 448 kts 188°
2026-05-07 13:55 18.52032 39.02443 36826 ft 450 kts 188°
2026-05-07 13:56 18.45817 39.02100 36826 ft 450 kts 188°
2026-05-07 13:56 18.39555 39.01754 36829 ft 450 kts 188°
2026-05-07 13:57 18.33287 39.01408 36817 ft 450 kts 188°
2026-05-07 13:57 18.27069 39.01064 36826 ft 451 kts 188°
2026-05-07 13:58 18.20772 39.00716 36826 ft 452 kts 188°
2026-05-07 13:58 18.14488 39.00396 36826 ft 452 kts 187°
2026-05-07 13:59 18.08189 39.00163 36824 ft 452 kts 187°
2026-05-07 13:59 18.01927 38.99952 36829 ft 453 kts 186°
2026-05-07 14:00 17.95612 38.99733 36826 ft 453 kts 186°
2026-05-07 14:00 17.89309 38.99508 36826 ft 453 kts 186°
2026-05-07 14:01 17.83001 38.99281 36832 ft 453 kts 187°
2026-05-07 14:01 17.76682 38.99053 36825 ft 454 kts 186°
2026-05-07 14:02 17.70400 38.98827 36828 ft 455 kts 186°
2026-05-07 14:02 17.64074 38.98600 36836 ft 454 kts 186°
2026-05-07 14:03 17.57748 38.98374 36822 ft 454 kts 186°
2026-05-07 14:03 17.51457 38.98148 36825 ft 455 kts 186°
2026-05-07 14:04 17.45123 38.97921 36828 ft 456 kts 186°
2026-05-07 14:04 17.38771 38.97692 36833 ft 456 kts 186°
2026-05-07 14:05 17.32422 38.97459 36834 ft 456 kts 186°
2026-05-07 14:05 17.26080 38.97227 36827 ft 456 kts 186°
2026-05-07 14:06 17.20793 38.97033 36835 ft 457 kts 186°
2026-05-07 14:06 17.13389 38.96763 36837 ft 458 kts 186°
2026-05-07 14:07 17.08087 38.96570 36830 ft 458 kts 186°
2026-05-07 14:07 17.01722 38.96338 36833 ft 458 kts 186°
2026-05-07 14:08 16.95349 38.96106 36825 ft 458 kts 186°
2026-05-07 14:08 16.88973 38.95874 36840 ft 458 kts 186°
2026-05-07 14:09 16.82605 38.95642 36837 ft 458 kts 186°
2026-05-07 14:09 16.76238 38.95411 36843 ft 458 kts 186°
2026-05-07 14:10 16.69860 38.95179 36841 ft 458 kts 185°
2026-05-07 14:10 16.63514 38.94948 36846 ft 459 kts 185°
2026-05-07 14:11 16.57119 38.94716 36846 ft 460 kts 185°
2026-05-07 14:11 16.50719 38.94485 36848 ft 459 kts 185°
2026-05-07 14:12 16.44319 38.94253 36843 ft 460 kts 185°
2026-05-07 14:12 16.37917 38.94021 36855 ft 460 kts 185°
2026-05-07 14:13 16.31551 38.93791 36865 ft 460 kts 185°
2026-05-07 14:13 16.25135 38.93559 36870 ft 460 kts 185°
2026-05-07 14:14 16.18732 38.93327 36871 ft 461 kts 185°
2026-05-07 14:14 16.12296 38.93095 36878 ft 463 kts 185°
2026-05-07 14:15 16.05846 38.92862 36882 ft 464 kts 185°
2026-05-07 14:15 15.99386 38.92629 36880 ft 464 kts 185°
2026-05-07 14:16 15.92972 38.92398 36894 ft 464 kts 185°
2026-05-07 14:16 15.86505 38.92164 36901 ft 465 kts 185°
2026-05-07 14:17 15.80029 38.91931 36901 ft 466 kts 185°
2026-05-07 14:17 15.73584 38.91700 36910 ft 466 kts 185°
2026-05-07 14:18 15.67102 38.91468 36910 ft 466 kts 185°
2026-05-07 14:18 15.60605 38.91234 36920 ft 467 kts 185°
2026-05-07 14:19 15.54098 38.91000 36921 ft 468 kts 184°
2026-05-07 14:19 15.47617 38.90768 36939 ft 468 kts 185°
2026-05-07 14:20 15.41108 38.90535 36947 ft 468 kts 184°
2026-05-07 14:20 15.34595 38.90301 36949 ft 468 kts 184°
2026-05-07 14:21 15.28074 38.90078 36962 ft 469 kts 184°
2026-05-07 14:21 15.21530 38.90020 36964 ft 470 kts 182°
2026-05-07 14:22 15.15028 38.90040 36968 ft 470 kts 182°
2026-05-07 14:22 15.08482 38.90055 36964 ft 470 kts 182°
2026-05-07 14:23 15.01920 38.90055 36972 ft 472 kts 182°
2026-05-07 14:23 14.95394 38.90048 36970 ft 472 kts 182°
2026-05-07 14:24 14.88820 38.90040 36971 ft 472 kts 182°
2026-05-07 14:24 14.82245 38.90033 36972 ft 472 kts 182°
2026-05-07 14:25 14.75673 38.90026 36965 ft 472 kts 182°
2026-05-07 14:25 14.69091 38.90019 36961 ft 473 kts 182°
2026-05-07 14:26 14.62543 38.90013 36958 ft 473 kts 182°
2026-05-07 14:26 14.55957 38.90038 36959 ft 474 kts 179°
2026-05-07 14:27 14.49480 38.91337 36963 ft 478 kts 161°
2026-05-07 14:27 14.43638 38.94659 36971 ft 482 kts 148°
2026-05-07 14:28 14.38183 38.98675 36968 ft 484 kts 146°
2026-05-07 14:28 14.32796 39.02788 36966 ft 484 kts 146°
2026-05-07 14:29 14.27369 39.06895 36980 ft 484 kts 146°
2026-05-07 14:29 14.21910 39.10981 36980 ft 484 kts 146°
2026-05-07 14:30 14.16454 39.15047 36989 ft 484 kts 146°
2026-05-07 14:30 14.11029 39.19087 36988 ft 484 kts 146°
2026-05-07 14:31 14.05559 39.23160 36995 ft 484 kts 146°
2026-05-07 14:31 14.00103 39.27219 37000 ft 484 kts 146°
2026-05-07 14:32 13.94641 39.31282 37006 ft 483 kts 146°
2026-05-07 14:32 13.89213 39.35316 36998 ft 483 kts 146°
2026-05-07 14:33 13.83751 39.39373 37008 ft 484 kts 146°
2026-05-07 14:33 13.78276 39.43438 37011 ft 485 kts 146°
2026-05-07 14:34 13.72807 39.47497 37010 ft 484 kts 146°
2026-05-07 14:34 13.67343 39.51549 37011 ft 484 kts 146°
2026-05-07 14:35 13.61866 39.55608 37011 ft 484 kts 146°
2026-05-07 14:35 13.56431 39.59634 36999 ft 484 kts 146°
2026-05-07 14:36 13.50950 39.63691 37004 ft 484 kts 146°
2026-05-07 14:36 13.45479 39.67739 36982 ft 484 kts 146°
2026-05-07 14:37 13.40038 39.71762 36982 ft 484 kts 146°
2026-05-07 14:37 13.31832 39.77825 36966 ft 484 kts 146°
2026-05-07 14:38 13.26357 39.81868 36962 ft 484 kts 146°
2026-05-07 14:38 13.20917 39.85883 36949 ft 484 kts 146°
2026-05-07 14:39 13.15422 39.89936 36945 ft 483 kts 146°
2026-05-07 14:39 13.09994 39.93937 36966 ft 483 kts 146°
2026-05-07 14:40 13.04516 39.97972 36927 ft 484 kts 146°
2026-05-07 14:40 12.99048 40.01999 36930 ft 483 kts 146°
2026-05-07 14:41 12.93582 40.06022 36919 ft 483 kts 146°
2026-05-07 14:41 12.88109 40.10047 36908 ft 484 kts 145°
2026-05-07 14:42 12.82664 40.14050 36899 ft 484 kts 145°
2026-05-07 14:42 12.77178 40.18080 36898 ft 484 kts 146°
2026-05-07 14:43 12.71700 40.22102 36882 ft 484 kts 146°
2026-05-07 14:43 12.66228 40.26118 36879 ft 484 kts 145°
2026-05-07 14:44 12.60734 40.30148 36872 ft 485 kts 145°
2026-05-07 14:44 12.55279 40.34147 36873 ft 485 kts 145°
2026-05-07 14:45 12.49789 40.38170 36862 ft 485 kts 145°
2026-05-07 14:45 12.44129 40.41923 36862 ft 484 kts 152°
2026-05-07 14:46 12.38168 40.45117 36861 ft 484 kts 154°
2026-05-07 14:46 12.32148 40.48205 36872 ft 484 kts 154°
2026-05-07 14:47 12.26124 40.51278 36853 ft 485 kts 154°
2026-05-07 14:47 12.20081 40.54372 36861 ft 486 kts 154°
2026-05-07 14:48 12.14034 40.57477 36865 ft 486 kts 154°
2026-05-07 14:48 12.07990 40.60580 36849 ft 486 kts 154°
2026-05-07 14:49 12.01949 40.63680 36863 ft 486 kts 154°
2026-05-07 14:49 11.95900 40.66783 36840 ft 486 kts 154°
2026-05-07 14:50 11.89890 40.69863 36841 ft 486 kts 154°
2026-05-07 14:50 11.83840 40.72962 36854 ft 486 kts 154°
2026-05-07 14:51 11.77786 40.76062 36835 ft 486 kts 154°
2026-05-07 14:51 11.71760 40.79146 36846 ft 486 kts 154°
2026-05-07 14:52 11.66684 40.81743 36843 ft 486 kts 154°
2026-05-07 14:52 11.60673 40.84816 36825 ft 486 kts 154°
2026-05-07 14:53 11.54627 40.87906 36827 ft 486 kts 154°
2026-05-07 14:53 11.48568 40.91002 36829 ft 486 kts 154°
2026-05-07 14:54 11.42516 40.94091 36836 ft 486 kts 154°
2026-05-07 14:54 11.36498 40.97163 36827 ft 486 kts 154°
2026-05-07 14:55 11.30450 41.00248 36844 ft 486 kts 154°
2026-05-07 14:55 11.24401 41.03332 36842 ft 486 kts 154°
2026-05-07 14:56 11.18346 41.06418 36837 ft 486 kts 154°
2026-05-07 14:56 11.12340 41.09477 36828 ft 486 kts 154°
2026-05-07 14:57 11.06289 41.12558 36842 ft 486 kts 154°
2026-05-07 14:57 11.00235 41.15639 36850 ft 486 kts 154°
2026-05-07 14:58 10.94168 41.18725 36842 ft 486 kts 154°
2026-05-07 14:58 10.88114 41.21803 36833 ft 486 kts 154°
2026-05-07 14:59 10.82059 41.24880 36845 ft 486 kts 154°
2026-05-07 14:59 10.76045 41.27935 36853 ft 486 kts 154°
2026-05-07 15:00 10.69962 41.31023 36836 ft 487 kts 154°
2026-05-07 15:00 10.63892 41.34104 36856 ft 487 kts 154°
2026-05-07 15:01 10.57863 41.37162 36856 ft 487 kts 154°
2026-05-07 15:01 10.51796 41.40239 36855 ft 487 kts 154°
2026-05-07 15:02 10.45725 41.43315 36858 ft 487 kts 154°
2026-05-07 15:02 10.39652 41.46392 36863 ft 487 kts 154°
2026-05-07 15:03 10.33578 41.49468 36863 ft 487 kts 154°
2026-05-07 15:03 10.27510 41.52540 36860 ft 487 kts 154°
2026-05-07 15:04 10.21475 41.55593 36861 ft 487 kts 154°
2026-05-07 15:04 10.15394 41.58668 36861 ft 487 kts 154°
2026-05-07 15:05 10.09326 41.61736 36857 ft 486 kts 154°
2026-05-07 15:05 10.03292 41.64785 36865 ft 486 kts 154°
2026-05-07 15:06 9.97226 41.67849 36867 ft 486 kts 154°
2026-05-07 15:06 9.91163 41.70910 36883 ft 486 kts 154°
2026-05-07 15:07 9.85094 41.73973 36886 ft 486 kts 154°
2026-05-07 15:07 9.79067 41.77013 36904 ft 486 kts 154°
2026-05-07 15:08 9.73055 41.80169 36909 ft 487 kts 148°
2026-05-07 15:08 9.67933 41.84635 36938 ft 487 kts 129°
2026-05-07 15:09 9.66015 41.87467 36945 ft 488 kts 118°
2026-05-07 15:09 9.64639 41.90611 36942 ft 487 kts 108°
2026-05-07 15:09 9.63861 41.93946 36949 ft 487 kts 97°
2026-05-07 15:09 9.63508 41.97321 36954 ft 488 kts 94°
2026-05-07 15:10 9.63104 42.04209 36953 ft 489 kts 92°
2026-05-07 15:10 9.62789 42.11107 36953 ft 490 kts 92°
2026-05-07 15:11 9.62431 42.18010 36965 ft 490 kts 93°
2026-05-07 15:11 9.62040 42.24865 36965 ft 490 kts 93°
2026-05-07 15:12 9.61635 42.31768 36978 ft 490 kts 93°
2026-05-07 15:12 9.61231 42.38662 36984 ft 490 kts 93°
2026-05-07 15:13 9.60825 42.45561 36972 ft 490 kts 93°
2026-05-07 15:13 9.60419 42.52450 36970 ft 489 kts 93°
2026-05-07 15:14 9.60014 42.59301 36978 ft 489 kts 93°
2026-05-07 15:14 9.59606 42.66190 36977 ft 489 kts 93°
2026-05-07 15:15 9.59198 42.73064 36983 ft 488 kts 93°
2026-05-07 15:15 9.58788 42.79931 36981 ft 488 kts 93°
2026-05-07 15:16 9.58377 42.86800 36988 ft 488 kts 93°
2026-05-07 15:16 9.57967 42.93620 36983 ft 488 kts 93°
2026-05-07 15:17 9.57553 43.00496 36989 ft 488 kts 93°
2026-05-07 15:17 9.57138 43.07361 36983 ft 488 kts 94°
2026-05-07 15:18 9.56722 43.14222 36987 ft 488 kts 94°
2026-05-07 15:18 9.56304 43.21091 36989 ft 488 kts 94°
2026-05-07 15:19 9.55888 43.27908 36989 ft 488 kts 94°
2026-05-07 15:19 9.55468 43.34779 36989 ft 488 kts 94°
2026-05-07 15:20 9.55056 43.41671 36982 ft 488 kts 93°
2026-05-07 15:20 9.54752 43.48551 36982 ft 489 kts 92°
2026-05-07 15:21 9.54490 43.55390 36977 ft 489 kts 92°
2026-05-07 15:21 9.54219 43.62281 36974 ft 489 kts 92°
2026-05-07 15:22 9.53937 43.69162 36965 ft 488 kts 92°
2026-05-07 15:22 9.53650 43.76052 36962 ft 488 kts 92°
2026-05-07 15:23 9.53363 43.82881 36966 ft 488 kts 92°
2026-05-07 15:23 9.53074 43.89763 36958 ft 488 kts 92°
2026-05-07 15:24 9.52783 43.96632 36954 ft 488 kts 92°
2026-05-07 15:24 9.52492 44.03503 36956 ft 488 kts 92°
2026-05-07 15:25 9.52165 44.10375 36950 ft 488 kts 94°
2026-05-07 15:25 9.51555 44.17183 36949 ft 487 kts 96°
2026-05-07 15:26 9.50836 44.24014 36953 ft 487 kts 96°
2026-05-07 15:26 9.50131 44.30854 36947 ft 487 kts 96°
2026-05-07 15:27 9.49452 44.37676 36946 ft 487 kts 96°
2026-05-07 15:27 9.48779 44.44513 36947 ft 487 kts 96°
2026-05-07 15:28 9.48112 44.51295 36947 ft 485 kts 96°
2026-05-07 15:28 9.47440 44.58095 36945 ft 485 kts 96°
2026-05-07 15:29 9.46766 44.64895 36943 ft 484 kts 96°
2026-05-07 15:29 9.46091 44.71687 36945 ft 484 kts 96°
2026-05-07 15:30 9.45420 44.78430 36947 ft 483 kts 96°
2026-05-07 15:30 9.44745 44.85204 36945 ft 484 kts 96°
2026-05-07 15:31 9.44067 44.91988 36950 ft 484 kts 96°
2026-05-07 15:31 9.43389 44.98766 36947 ft 483 kts 96°
2026-05-07 15:32 9.42713 45.05512 36938 ft 484 kts 96°
2026-05-07 15:32 9.42031 45.12294 36943 ft 484 kts 96°
2026-05-07 15:33 9.41346 45.19098 36940 ft 484 kts 96°
2026-05-07 15:33 9.40663 45.25872 36936 ft 484 kts 96°
2026-05-07 15:34 9.39982 45.32613 36937 ft 484 kts 96°
2026-05-07 15:34 9.39293 45.39414 36936 ft 484 kts 96°
2026-05-07 15:35 9.38605 45.46199 36936 ft 484 kts 96°
2026-05-07 15:35 9.37919 45.52939 36935 ft 484 kts 96°
2026-05-07 15:36 9.37226 45.59743 36936 ft 484 kts 96°
2026-05-07 15:36 9.36534 45.66533 36933 ft 485 kts 96°
2026-05-07 15:37 9.35838 45.73334 36932 ft 485 kts 96°
2026-05-07 15:37 9.35142 45.80132 36925 ft 485 kts 96°
2026-05-07 15:38 9.34444 45.86932 36925 ft 485 kts 96°
2026-05-07 15:38 9.33750 45.93684 36922 ft 485 kts 96°
2026-05-07 15:39 9.33048 46.00500 36929 ft 485 kts 96°
2026-05-07 15:39 9.32345 46.07311 36918 ft 486 kts 96°
2026-05-07 15:40 9.31645 46.14082 36924 ft 486 kts 96°
2026-05-07 15:40 9.30940 46.20889 36918 ft 486 kts 96°
2026-05-07 15:41 9.30353 46.26544 36915 ft 485 kts 97°
2026-05-07 15:41 9.29647 46.33336 36918 ft 485 kts 97°
2026-05-07 15:42 9.28940 46.40128 36918 ft 484 kts 97°
2026-05-07 15:42 9.28233 46.46905 36922 ft 484 kts 97°
2026-05-07 15:43 9.27528 46.53648 36923 ft 484 kts 97°
2026-05-07 15:43 9.26816 46.60444 36922 ft 484 kts 97°
2026-05-07 15:44 9.26104 46.67236 36918 ft 484 kts 97°
2026-05-07 15:44 9.25391 46.74021 36911 ft 484 kts 97°
2026-05-07 15:45 9.24681 46.80764 36916 ft 484 kts 97°
2026-05-07 15:45 9.23964 46.87555 36916 ft 484 kts 97°
2026-05-07 15:46 9.22889 46.97729 36907 ft 484 kts 97°
2026-05-07 15:47 9.22171 47.04504 36911 ft 484 kts 97°
2026-05-07 15:47 9.21452 47.11276 36913 ft 484 kts 97°
2026-05-07 15:48 9.20736 47.18010 36910 ft 484 kts 97°
2026-05-07 15:48 9.20014 47.24788 36911 ft 484 kts 97°
2026-05-07 15:49 9.19290 47.31569 36911 ft 484 kts 97°
2026-05-07 15:49 9.18971 47.38356 36913 ft 484 kts 90°
2026-05-07 15:50 9.19040 47.45169 36913 ft 484 kts 89°
2026-05-07 15:50 9.19179 47.51981 36917 ft 484 kts 89°
2026-05-07 15:51 9.19317 47.58750 36920 ft 483 kts 89°
2026-05-07 15:51 9.19446 47.65559 36921 ft 484 kts 90°
2026-05-07 15:52 9.19568 47.72369 36928 ft 484 kts 89°
2026-05-07 15:52 9.19688 47.79195 36922 ft 484 kts 89°
2026-05-07 15:53 9.19807 47.86001 36924 ft 483 kts 90°
2026-05-07 15:53 9.19924 47.92810 36929 ft 483 kts 90°
2026-05-07 15:54 9.20040 47.99569 36933 ft 483 kts 90°
2026-05-07 15:54 9.20155 48.06367 36935 ft 483 kts 90°
2026-05-07 15:55 9.20269 48.13159 36935 ft 482 kts 90°
2026-05-07 15:55 9.20381 48.19963 36932 ft 482 kts 90°
2026-05-07 15:56 9.20492 48.26707 36932 ft 482 kts 90°
2026-05-07 15:56 9.20601 48.33502 36935 ft 482 kts 90°
2026-05-07 15:57 9.20710 48.40298 36936 ft 482 kts 90°
2026-05-07 15:57 9.20817 48.47074 36936 ft 482 kts 90°
2026-05-07 15:58 9.20923 48.53821 36936 ft 482 kts 90°
2026-05-07 15:58 9.21027 48.60609 36935 ft 482 kts 90°
2026-05-07 15:59 9.21131 48.67409 36934 ft 482 kts 90°
2026-05-07 15:59 9.21233 48.74204 36938 ft 482 kts 90°
2026-05-07 16:00 9.21334 48.80962 36938 ft 482 kts 90°
2026-05-07 16:00 9.21434 48.87756 36936 ft 482 kts 90°
2026-05-07 16:01 9.21532 48.94542 36935 ft 482 kts 90°
2026-05-07 16:01 9.21629 49.01328 36938 ft 482 kts 90°
2026-05-07 16:02 9.21725 49.08115 36942 ft 482 kts 90°
2026-05-07 16:02 9.21819 49.14904 36940 ft 482 kts 90°
2026-05-07 16:03 9.21913 49.21678 36939 ft 482 kts 90°
2026-05-07 16:03 9.22004 49.28435 36936 ft 482 kts 90°
2026-05-07 16:04 9.22095 49.35226 36933 ft 482 kts 90°
2026-05-07 16:04 9.22185 49.42023 36935 ft 482 kts 90°
2026-05-07 16:05 9.22273 49.48820 36934 ft 482 kts 90°
2026-05-07 16:05 9.22360 49.55610 36927 ft 482 kts 90°
2026-05-07 16:06 9.22446 49.62404 36923 ft 482 kts 90°
2026-05-07 16:06 9.22529 49.69158 36925 ft 482 kts 90°
2026-05-07 16:07 9.22610 49.75948 36921 ft 482 kts 90°
2026-05-07 16:07 9.22689 49.82740 36919 ft 483 kts 90°
2026-05-07 16:08 9.22768 49.89545 36916 ft 483 kts 90°
2026-05-07 16:08 9.22844 49.96313 36913 ft 483 kts 90°
2026-05-07 16:09 9.22920 50.03117 36911 ft 483 kts 90°
2026-05-07 16:09 9.22995 50.09917 36906 ft 483 kts 90°
2026-05-07 16:10 9.23068 50.16714 36903 ft 483 kts 90°
2026-05-07 16:10 9.23140 50.23469 36903 ft 483 kts 90°
2026-05-07 16:11 9.23211 50.30275 36898 ft 483 kts 90°
2026-05-07 16:11 9.23280 50.37077 36892 ft 483 kts 90°
2026-05-07 16:12 9.23348 50.43846 36885 ft 483 kts 90°
2026-05-07 16:12 9.23415 50.50643 36892 ft 483 kts 90°
2026-05-07 16:13 9.23481 50.57445 36884 ft 483 kts 90°
2026-05-07 16:13 9.23545 50.64248 36876 ft 483 kts 90°
2026-05-07 16:14 9.23608 50.71044 36874 ft 482 kts 90°
2026-05-07 16:14 9.23670 50.77835 36873 ft 482 kts 90°
2026-05-07 16:15 9.23730 50.84630 36874 ft 482 kts 90°
2026-05-07 16:15 9.23789 50.91372 36866 ft 482 kts 90°
2026-05-07 16:16 9.23847 50.98153 36869 ft 481 kts 90°
2026-05-07 16:16 9.23904 51.04943 36870 ft 481 kts 90°
2026-05-07 16:17 9.23959 51.11676 36868 ft 481 kts 90°
2026-05-07 16:17 9.24012 51.18455 36867 ft 481 kts 90°
2026-05-07 16:18 9.24065 51.25236 36872 ft 481 kts 90°
2026-05-07 16:18 9.24117 51.32020 36868 ft 481 kts 90°
2026-05-07 16:19 9.24167 51.38750 36868 ft 481 kts 90°
2026-05-07 16:19 9.24215 51.45521 36868 ft 481 kts 90°
2026-05-07 16:20 9.24263 51.52290 36867 ft 481 kts 90°
2026-05-07 16:20 9.24309 51.59067 36869 ft 481 kts 90°
2026-05-07 16:21 9.24354 51.65835 36869 ft 480 kts 90°
2026-05-07 16:21 9.24398 51.72604 36873 ft 480 kts 90°
2026-05-07 16:22 9.24441 51.79368 36794 ft 482 kts 90°
2026-05-07 16:22 9.24482 51.86102 36871 ft 481 kts 90°
2026-05-07 16:23 9.24522 51.92867 36873 ft 481 kts 90°
2026-05-07 16:23 9.24561 51.99643 36873 ft 480 kts 90°
2026-05-07 16:24 9.24598 52.06418 36873 ft 480 kts 90°
2026-05-07 16:24 9.24634 52.13172 36873 ft 480 kts 90°
2026-05-07 16:25 9.24669 52.19922 36873 ft 480 kts 90°
2026-05-07 16:25 9.24702 52.26634 36873 ft 480 kts 90°
2026-05-07 16:26 9.24735 52.33433 36875 ft 479 kts 90°
2026-05-07 16:26 9.24766 52.40140 36876 ft 479 kts 90°
2026-05-07 16:27 9.24795 52.46875 36876 ft 479 kts 90°
2026-05-07 16:27 9.24819 52.52488 36872 ft 479 kts 90°
2026-05-07 16:28 9.24847 52.59223 36873 ft 478 kts 90°
2026-05-07 16:28 9.24876 52.65963 36873 ft 478 kts 90°
2026-05-07 16:29 9.24900 52.72664 36875 ft 478 kts 90°
2026-05-07 16:29 9.24922 52.79395 36876 ft 478 kts 90°
2026-05-07 16:30 9.24944 52.86149 36875 ft 478 kts 90°
2026-05-07 16:30 9.24965 52.92879 36878 ft 479 kts 90°
2026-05-07 16:31 9.24984 52.99568 36881 ft 478 kts 90°
2026-05-07 16:31 9.25003 53.06329 36881 ft 478 kts 90°
2026-05-07 16:32 9.25021 53.13071 36881 ft 478 kts 90°
2026-05-07 16:32 9.25036 53.19768 36881 ft 478 kts 90°
2026-05-07 16:33 9.25051 53.26504 36881 ft 478 kts 90°
2026-05-07 16:33 9.25065 53.33243 36879 ft 478 kts 90°
2026-05-07 16:34 9.25077 53.39974 36878 ft 478 kts 90°
2026-05-07 16:34 9.25088 53.46664 36879 ft 478 kts 90°
2026-05-07 16:35 9.25098 53.53395 36878 ft 478 kts 90°
2026-05-07 16:35 9.25107 53.60123 36881 ft 478 kts 90°
2026-05-07 16:36 9.25114 53.66850 36880 ft 478 kts 90°
2026-05-07 16:36 9.25120 53.73582 36881 ft 478 kts 90°
2026-05-07 16:37 9.25125 53.80262 36881 ft 477 kts 90°
2026-05-07 16:37 9.25129 53.86982 36882 ft 477 kts 90°
2026-05-07 16:38 9.25131 53.93695 36881 ft 477 kts 90°
2026-05-07 16:38 9.25132 54.00413 36877 ft 477 kts 90°
2026-05-07 16:39 9.25132 54.07146 36880 ft 477 kts 90°
2026-05-07 16:39 9.25130 54.13828 36884 ft 477 kts 90°
2026-05-07 16:40 9.25128 54.20549 36884 ft 477 kts 90°
2026-05-07 16:40 9.25124 54.27278 36884 ft 477 kts 90°
2026-05-07 16:41 9.25118 54.34007 36884 ft 478 kts 90°
2026-05-07 16:41 9.25112 54.40737 36884 ft 478 kts 90°
2026-05-07 16:42 9.25104 54.47439 36885 ft 478 kts 90°
2026-05-07 16:42 9.25095 54.54160 36879 ft 478 kts 90°
2026-05-07 16:43 9.25085 54.60886 36881 ft 478 kts 90°
2026-05-07 16:43 9.25074 54.67618 36884 ft 478 kts 90°
2026-05-07 16:44 9.25061 54.74351 36884 ft 478 kts 90°
2026-05-07 16:44 9.25047 54.81081 36887 ft 478 kts 90°
2026-05-07 16:45 9.25032 54.87766 36886 ft 478 kts 90°
2026-05-07 16:45 9.25016 54.94499 36889 ft 478 kts 90°
2026-05-07 16:46 9.24998 55.01229 36892 ft 478 kts 90°
2026-05-07 16:46 9.24979 55.07966 36889 ft 478 kts 90°
2026-05-07 16:47 9.24959 55.14656 36890 ft 478 kts 90°
2026-05-07 16:47 9.24938 55.21377 36886 ft 478 kts 90°
2026-05-07 16:48 9.24916 55.28103 36884 ft 477 kts 90°
2026-05-07 16:48 9.24892 55.34828 36886 ft 478 kts 90°
2026-05-07 16:49 9.24867 55.41563 36886 ft 478 kts 90°
2026-05-07 16:49 9.24841 55.48292 36887 ft 478 kts 90°
2026-05-07 16:50 9.24813 55.55020 36888 ft 478 kts 90°
2026-05-07 16:50 9.24784 55.61762 36889 ft 478 kts 90°
2026-05-07 16:51 9.24754 55.68457 36889 ft 478 kts 90°
2026-05-07 16:51 9.24723 55.75190 36889 ft 478 kts 90°
2026-05-07 16:52 9.24691 55.81921 36889 ft 478 kts 90°
2026-05-07 16:52 9.24657 55.88653 36887 ft 477 kts 90°
2026-05-07 16:53 9.24622 55.95330 36887 ft 477 kts 90°
2026-05-07 16:53 9.24586 56.02063 36886 ft 477 kts 90°
2026-05-07 16:54 9.24548 56.08788 36886 ft 477 kts 90°
2026-05-07 16:54 9.24510 56.15479 36889 ft 477 kts 90°
2026-05-07 16:55 9.24470 56.22243 36889 ft 478 kts 90°
2026-05-07 16:55 9.24429 56.28921 36889 ft 477 kts 90°
2026-05-07 16:56 9.24386 56.35649 36892 ft 477 kts 90°
2026-05-07 16:56 9.24357 56.40136 36892 ft 476 kts 90°